WAT773 FMCH-HTDA

Flight info

Callsign WAT773
Flight time 0h 56m
Altitude 38000
Route KINAN UA401 KISIR NIGOX1C
Aircraft B77L/H-SDE1E2E3FGHIJ2J3J4J5M1RWXY/LB1D1

Departure

Time 2026-04-29 08:27
Airport Prince Said Ibrahim International Airport (FMCH)

Arrival

Time 2026-04-29 09:23
Airport Julius Nyerere International Airport (HTDA)
Time Latitude Longitude Altitude Speed Heading
2026-04-29 08:01 -11.53715 43.27398 106 ft 0 kts 243°
2026-04-29 08:22 -11.53712 43.27371 104 ft 6 kts 300°
2026-04-29 08:23 -11.53683 43.27323 102 ft 10 kts 289°
2026-04-29 08:23 -11.53664 43.27224 98 ft 15 kts 280°
2026-04-29 08:23 -11.53661 43.27142 95 ft 8 kts 231°
2026-04-29 08:23 -11.53741 43.27118 90 ft 16 kts 189°
2026-04-29 08:24 -11.53881 43.27093 84 ft 23 kts 190°
2026-04-29 08:24 -11.54049 43.27064 78 ft 25 kts 190°
2026-04-29 08:24 -11.54225 43.27032 74 ft 25 kts 189°
2026-04-29 08:24 -11.54402 43.27000 76 ft 24 kts 190°
2026-04-29 08:25 -11.54556 43.26986 79 ft 20 kts 165°
2026-04-29 08:25 -11.54621 43.26992 81 ft 5 kts 246°
2026-04-29 08:25 -11.54598 43.26972 80 ft 5 kts
2026-04-29 08:25 -11.54578 43.26973 80 ft 0 kts
2026-04-29 08:26 -11.54569 43.26974 80 ft 0 kts
2026-04-29 08:26 -11.54549 43.26976 79 ft 16 kts
2026-04-29 08:26 -11.54139 43.27047 75 ft 101 kts 10°
2026-04-29 08:27 -11.53180 43.27221 111 ft 173 kts 11°
2026-04-29 08:27 -11.51943 43.27444 816 ft 180 kts
2026-04-29 08:27 -11.50710 43.27217 1634 ft 190 kts 329°
2026-04-29 08:27 -11.49801 43.26274 2215 ft 192 kts 294°
2026-04-29 08:28 -11.49444 43.24952 2716 ft 198 kts 281°
2026-04-29 08:28 -11.48842 43.23733 3371 ft 197 kts 312°
2026-04-29 08:28 -11.47806 43.22706 3700 ft 218 kts 316°
2026-04-29 08:28 -11.46689 43.21579 4077 ft 238 kts 314°
2026-04-29 08:29 -11.45488 43.20293 4487 ft 258 kts 313°
2026-04-29 08:29 -11.44212 43.18912 4929 ft 278 kts 314°
2026-04-29 08:29 -11.42860 43.17449 5623 ft 286 kts 314°
2026-04-29 08:29 -11.41503 43.15980 6494 ft 287 kts 314°
2026-04-29 08:30 -11.40147 43.14514 7291 ft 289 kts 314°
2026-04-29 08:30 -11.37370 43.11513 8809 ft 294 kts 314°
2026-04-29 08:30 -11.35956 43.09985 9565 ft 297 kts 314°
2026-04-29 08:31 -11.34548 43.08463 10263 ft 301 kts 314°
2026-04-29 08:31 -11.33062 43.06859 10689 ft 318 kts 314°
2026-04-29 08:31 -11.31515 43.05188 11105 ft 335 kts 314°
2026-04-29 08:31 -11.29856 43.03397 11576 ft 351 kts 314°
2026-04-29 08:32 -11.28150 43.01555 12080 ft 366 kts 314°
2026-04-29 08:32 -11.26360 42.99622 12626 ft 380 kts 314°
2026-04-29 08:32 -11.24530 42.97647 13215 ft 392 kts 313°
2026-04-29 08:32 -11.22622 42.95587 13934 ft 401 kts 314°
2026-04-29 08:33 -11.20689 42.93500 14686 ft 410 kts 314°
2026-04-29 08:33 -11.18737 42.91395 15469 ft 418 kts 314°
2026-04-29 08:33 -11.16727 42.89227 16209 ft 427 kts 314°
2026-04-29 08:33 -11.14655 42.86994 16953 ft 436 kts 314°
2026-04-29 08:34 -11.12542 42.84716 17690 ft 444 kts 315°
2026-04-29 08:34 -11.10431 42.82441 18445 ft 450 kts 315°
2026-04-29 08:34 -11.08255 42.80097 19216 ft 456 kts 314°
2026-04-29 08:34 -11.06066 42.77738 19957 ft 462 kts 315°
2026-04-29 08:35 -11.03840 42.75341 20663 ft 468 kts 315°
2026-04-29 08:35 -11.01608 42.72938 21322 ft 474 kts 314°
2026-04-29 08:35 -10.99315 42.70469 22031 ft 480 kts 315°
2026-04-29 08:35 -10.97006 42.67985 22730 ft 484 kts 314°
2026-04-29 08:36 -10.94678 42.65479 23501 ft 487 kts 314°
2026-04-29 08:36 -10.92346 42.62971 24294 ft 489 kts 314°
2026-04-29 08:36 -10.90006 42.60453 25060 ft 492 kts 314°
2026-04-29 08:36 -10.87648 42.57918 25763 ft 496 kts 314°
2026-04-29 08:37 -10.85275 42.55368 26528 ft 499 kts 314°
2026-04-29 08:37 -10.82909 42.52825 27293 ft 502 kts 314°
2026-04-29 08:37 -10.80506 42.50243 28041 ft 505 kts 314°
2026-04-29 08:37 -10.78072 42.47628 28759 ft 509 kts 314°
2026-04-29 08:38 -10.75647 42.45024 29483 ft 512 kts 314°
2026-04-29 08:38 -10.73043 42.42504 30303 ft 513 kts 320°
2026-04-29 08:38 -10.70345 42.40180 31259 ft 510 kts 320°
2026-04-29 08:38 -10.67632 42.37870 32237 ft 506 kts 320°
2026-04-29 08:39 -10.64934 42.35572 33181 ft 503 kts 320°
2026-04-29 08:39 -10.62239 42.33278 34101 ft 501 kts 321°
2026-04-29 08:39 -10.59599 42.31030 34998 ft 499 kts 321°
2026-04-29 08:39 -10.56922 42.28750 35824 ft 498 kts 321°
2026-04-29 08:40 -10.54274 42.26495 36294 ft 499 kts 321°
2026-04-29 08:40 -10.51635 42.24247 36726 ft 496 kts 321°
2026-04-29 08:40 -10.48961 42.21972 37054 ft 497 kts 321°
2026-04-29 08:40 -10.46336 42.19737 37347 ft 496 kts 321°
2026-04-29 08:41 -10.43651 42.17452 37648 ft 494 kts 321°
2026-04-29 08:41 -10.40983 42.15182 37933 ft 496 kts 321°
2026-04-29 08:41 -10.38253 42.12860 37956 ft 497 kts 321°
2026-04-29 08:42 -10.32885 42.08293 37966 ft 494 kts 321°
2026-04-29 08:42 -10.27580 42.03784 37971 ft 494 kts 321°
2026-04-29 08:43 -10.22243 41.99249 37973 ft 494 kts 321°
2026-04-29 08:43 -10.16959 41.94761 37975 ft 495 kts 321°
2026-04-29 08:44 -10.11645 41.90250 37975 ft 494 kts 321°
2026-04-29 08:44 -10.06359 41.85764 37974 ft 494 kts 321°
2026-04-29 08:45 -10.01069 41.81277 37974 ft 495 kts 321°
2026-04-29 08:45 -9.95754 41.76770 37980 ft 496 kts 321°
2026-04-29 08:46 -9.90471 41.72293 37974 ft 495 kts 321°
2026-04-29 08:46 -9.85172 41.67805 37973 ft 495 kts 321°
2026-04-29 08:47 -9.79882 41.63325 37971 ft 495 kts 321°
2026-04-29 08:47 -9.74583 41.58840 37976 ft 495 kts 321°
2026-04-29 08:48 -9.69276 41.54350 37978 ft 496 kts 321°
2026-04-29 08:48 -9.63967 41.49860 37974 ft 496 kts 321°
2026-04-29 08:49 -9.58639 41.45356 37975 ft 496 kts 321°
2026-04-29 08:49 -9.53309 41.40853 37977 ft 496 kts 321°
2026-04-29 08:50 -9.48007 41.36375 37975 ft 495 kts 321°
2026-04-29 08:50 -9.42724 41.31915 37972 ft 496 kts 321°
2026-04-29 08:51 -9.37378 41.27404 37970 ft 495 kts 321°
2026-04-29 08:51 -9.32096 41.22949 37971 ft 495 kts 321°
2026-04-29 08:52 -9.26787 41.18472 37971 ft 495 kts 321°
2026-04-29 08:52 -9.21499 41.14016 37972 ft 494 kts 321°
2026-04-29 08:53 -9.16186 41.09540 37973 ft 496 kts 321°
2026-04-29 08:53 -9.10874 41.05066 37973 ft 496 kts 321°
2026-04-29 08:54 -9.05564 41.00596 37973 ft 496 kts 321°
2026-04-29 08:54 -9.00229 40.96107 37973 ft 496 kts 321°
2026-04-29 08:55 -8.94952 40.91669 37975 ft 496 kts 321°
2026-04-29 08:55 -8.89621 40.87186 37974 ft 495 kts 321°
2026-04-29 08:56 -8.84334 40.82743 37972 ft 494 kts 321°
2026-04-29 08:56 -8.79031 40.78287 37972 ft 494 kts 321°
2026-04-29 08:57 -8.73726 40.73832 37972 ft 495 kts 321°
2026-04-29 08:57 -8.68439 40.69394 37972 ft 496 kts 321°
2026-04-29 08:58 -8.63115 40.64926 37971 ft 493 kts 321°
2026-04-29 08:58 -8.57829 40.60491 37968 ft 494 kts 321°
2026-04-29 08:59 -8.52533 40.56050 37969 ft 493 kts 321°
2026-04-29 08:59 -8.47224 40.51601 37969 ft 493 kts 321°
2026-04-29 09:00 -8.41929 40.47164 37969 ft 493 kts 321°
2026-04-29 09:00 -8.36652 40.42744 37789 ft 488 kts 321°
2026-04-29 09:00 -8.34010 40.40531 37352 ft 491 kts 321°
2026-04-29 09:01 -8.31391 40.38338 36898 ft 494 kts 321°
2026-04-29 09:01 -8.28746 40.36125 36564 ft 495 kts 321°
2026-04-29 09:01 -8.26067 40.33882 36372 ft 494 kts 321°
2026-04-29 09:01 -8.23398 40.31687 36160 ft 492 kts 324°
2026-04-29 09:02 -8.20561 40.29767 35471 ft 483 kts 329°
2026-04-29 09:02 -8.17696 40.27993 34183 ft 486 kts 329°
2026-04-29 09:02 -8.14774 40.26227 32510 ft 495 kts 328°
2026-04-29 09:02 -8.11823 40.24390 30820 ft 506 kts 328°
2026-04-29 09:03 -8.08812 40.22509 29728 ft 512 kts 328°
2026-04-29 09:03 -8.05810 40.20634 29022 ft 510 kts 329°
2026-04-29 09:03 -8.02785 40.18748 28463 ft 505 kts 329°
2026-04-29 09:03 -7.99789 40.16882 27919 ft 501 kts 329°
2026-04-29 09:04 -7.96852 40.15053 27350 ft 497 kts 329°
2026-04-29 09:04 -7.93931 40.13235 26774 ft 494 kts 329°
2026-04-29 09:04 -7.91000 40.11413 26189 ft 490 kts 329°
2026-04-29 09:04 -7.88094 40.09606 25593 ft 487 kts 329°
2026-04-29 09:05 -7.85200 40.07807 24985 ft 483 kts 329°
2026-04-29 09:05 -7.82398 40.06067 24381 ft 472 kts 329°
2026-04-29 09:05 -7.79606 40.04332 23845 ft 466 kts 330°
2026-04-29 09:05 -7.76859 40.02626 23255 ft 464 kts 330°
2026-04-29 09:06 -7.74087 40.00905 22656 ft 462 kts 330°
2026-04-29 09:06 -7.71380 39.99226 22082 ft 459 kts 330°
2026-04-29 09:06 -7.68652 39.97533 21503 ft 457 kts 330°
2026-04-29 09:06 -7.65947 39.95855 20916 ft 455 kts 329°
2026-04-29 09:07 -7.63246 39.94179 20320 ft 453 kts 329°
2026-04-29 09:07 -7.60560 39.92513 19655 ft 448 kts 329°
2026-04-29 09:07 -7.57959 39.90900 19080 ft 433 kts 329°
2026-04-29 09:07 -7.55428 39.89330 18548 ft 418 kts 329°
2026-04-29 09:08 -7.53012 39.87832 18056 ft 406 kts 329°
2026-04-29 09:08 -7.50595 39.86334 17511 ft 405 kts 328°
2026-04-29 09:08 -7.48187 39.84842 16930 ft 405 kts 328°
2026-04-29 09:08 -7.45796 39.83360 16368 ft 404 kts 328°
2026-04-29 09:09 -7.43390 39.81869 15805 ft 403 kts 328°
2026-04-29 09:09 -7.40985 39.80380 15235 ft 401 kts 328°
2026-04-29 09:09 -7.38625 39.78917 14677 ft 400 kts 328°
2026-04-29 09:09 -7.36242 39.77441 14120 ft 398 kts 328°
2026-04-29 09:10 -7.33912 39.75998 13567 ft 396 kts 328°
2026-04-29 09:10 -7.31550 39.74535 13008 ft 393 kts 328°
2026-04-29 09:10 -7.29245 39.73108 12462 ft 391 kts 328°
2026-04-29 09:10 -7.26914 39.71665 11901 ft 388 kts 328°
2026-04-29 09:11 -7.24608 39.70237 11345 ft 386 kts 328°
2026-04-29 09:11 -7.22361 39.68846 10736 ft 372 kts 329°
2026-04-29 09:11 -7.20207 39.67512 10548 ft 348 kts 329°
2026-04-29 09:11 -7.18224 39.66285 10484 ft 323 kts 329°
2026-04-29 09:12 -7.16345 39.65122 10381 ft 303 kts 329°
2026-04-29 09:12 -7.14601 39.64043 10303 ft 285 kts 329°
2026-04-29 09:12 -7.12941 39.63016 10165 ft 277 kts 329°
2026-04-29 09:12 -7.11289 39.61995 10040 ft 280 kts 328°
2026-04-29 09:13 -7.09595 39.60948 9891 ft 290 kts 328°
2026-04-29 09:13 -7.07849 39.59868 9499 ft 294 kts 328°
2026-04-29 09:13 -7.06090 39.58780 9100 ft 295 kts 328°
2026-04-29 09:13 -7.04349 39.57703 8749 ft 295 kts 328°
2026-04-29 09:14 -7.02581 39.56611 8391 ft 295 kts 329°
2026-04-29 09:14 -7.00840 39.55534 8040 ft 295 kts 329°
2026-04-29 09:14 -6.99089 39.54451 7697 ft 295 kts 329°
2026-04-29 09:14 -6.97319 39.53356 7339 ft 296 kts 329°
2026-04-29 09:15 -6.95566 39.52271 6966 ft 296 kts 329°
2026-04-29 09:15 -6.93815 39.51188 6606 ft 287 kts 328°
2026-04-29 09:15 -6.92139 39.50152 6330 ft 282 kts 329°
2026-04-29 09:15 -6.90448 39.49106 5980 ft 283 kts 328°
2026-04-29 09:16 -6.88756 39.48061 5629 ft 284 kts 329°
2026-04-29 09:16 -6.87084 39.47027 5276 ft 282 kts 328°
2026-04-29 09:16 -6.85410 39.45992 4952 ft 277 kts 328°
2026-04-29 09:16 -6.83772 39.44980 4645 ft 273 kts 328°
2026-04-29 09:17 -6.82160 39.43983 4350 ft 272 kts 329°
2026-04-29 09:17 -6.80529 39.42975 4013 ft 273 kts 328°
2026-04-29 09:17 -6.79066 39.41803 3665 ft 267 kts 316°
2026-04-29 09:17 -6.77770 39.40519 3394 ft 258 kts 314°
2026-04-29 09:18 -6.76512 39.39248 3093 ft 250 kts 314°
2026-04-29 09:18 -6.75303 39.38032 2818 ft 243 kts 313°
2026-04-29 09:18 -6.74417 39.36684 2716 ft 225 kts 285°
2026-04-29 09:18 -6.74281 39.35171 2645 ft 207 kts 260°
2026-04-29 09:19 -6.74723 39.33871 2574 ft 190 kts 237°
2026-04-29 09:19 -6.75434 39.32809 2494 ft 174 kts 230°
2026-04-29 09:19 -6.76188 39.31908 2436 ft 167 kts 223°
2026-04-29 09:19 -6.77001 39.31073 2371 ft 163 kts 221°
2026-04-29 09:20 -6.77811 39.30265 2313 ft 163 kts 221°
2026-04-29 09:20 -6.78609 39.29467 2253 ft 162 kts 221°
2026-04-29 09:20 -6.79419 39.28657 2080 ft 163 kts 221°
2026-04-29 09:20 -6.80197 39.27878 1844 ft 151 kts 221°
2026-04-29 09:21 -6.80933 39.27143 1633 ft 147 kts 220°
2026-04-29 09:21 -6.81655 39.26425 1422 ft 145 kts 221°
2026-04-29 09:21 -6.82381 39.25703 1226 ft 144 kts 221°
2026-04-29 09:21 -6.83085 39.24996 1029 ft 145 kts 222°
2026-04-29 09:22 -6.83806 39.24264 833 ft 145 kts 222°
2026-04-29 09:22 -6.84522 39.23553 643 ft 144 kts 222°
2026-04-29 09:22 -6.85231 39.22844 468 ft 142 kts 223°
2026-04-29 09:22 -6.85929 39.22145 314 ft 141 kts 223°
2026-04-29 09:23 -6.86628 39.21449 186 ft 135 kts 224°
2026-04-29 09:23 -6.87190 39.20888 190 ft 91 kts 225°
2026-04-29 09:23 -6.87478 39.20598 188 ft 40 kts 225°
2026-04-29 09:23 -6.87577 39.20497 189 ft 11 kts 225°
2026-04-29 09:24 -6.87575 39.20422 189 ft 14 kts 314°
2026-04-29 09:24 -6.87500 39.20363 191 ft 12 kts 353°
2026-04-29 09:24 -6.87431 39.20404 192 ft 11 kts 47°
2026-04-29 09:24 -6.87371 39.20463 192 ft 13 kts 44°
2026-04-29 09:25 -6.87298 39.20538 191 ft 16 kts 44°
2026-04-29 09:25 -6.87218 39.20618 190 ft 15 kts 47°
2026-04-29 09:25 -6.87139 39.20698 189 ft 16 kts 44°
2026-04-29 09:25 -6.87059 39.20775 189 ft 15 kts 44°
2026-04-29 09:26 -6.86987 39.20847 189 ft 14 kts 45°
2026-04-29 09:26 -6.86921 39.20878 190 ft 9 kts 340°
2026-04-29 09:26 -6.86895 39.20833 191 ft 7 kts 259°
2026-04-29 09:26 -6.86895 39.20797 191 ft 4 kts 324°
2026-04-29 09:27 -6.86865 39.20777 192 ft 7 kts 313°
2026-04-29 09:27 -6.86844 39.20735 193 ft 5 kts 285°
2026-04-29 09:27 -6.86854 39.20703 193 ft 5 kts 229°
2026-04-29 09:27 -6.86872 39.20692 193 ft 0 kts 203°